Voltar ao catálogo

QIANFAN-130

AtivoComunicaçõesPO
NORAD 69076·PAYLOAD·🇨🇳 China

Lançado May 12, 2026 de Taiyuan Satellite Launch Center

Loading…

Próximas Passagens (próximas 24 horas)

TLE

AtualizadoSource: Space-Track

Época: Sep 14, 2026, 19:48 UTC

1 69076U 26104D   26257.82527373  .00000121  00000-0  16940-3 0  9997
2 69076  88.9912 332.3569 0002555  99.9454 260.1986 13.51033628 17243

Acompanhe QIANFAN-130 em tempo real com AllMySat

Download on the App Store